Overview Statistics Trail Chart Weather Telemetry Raw packets
 

This is the latest recevied weather packets stored in our database for station/object VE3EP-1. If no packets are shown the sender has not sent any weather packets the latest 10 day(s).

<< 29 30 31 32 33 34 35 >>
Time Temp. Humidity Pressure Rain* Wind** Luminosity Snow
1787974446 17.22° C 84% 1024 hPa 0 mm - - -
1787973847 17.78° C 83% 1024 hPa 0 mm - - -
1787973248 17.78° C 83% 1024 hPa 0 mm - - -
1787972646 17.78° C 81% 1024.1 hPa 0 mm - - -
1787972046 17.78° C 81% 1023.9 hPa 0 mm - - -
1787971446 17.78° C 82% 1023.9 hPa 0 mm - - -
1787970846 17.78° C 81% 1024 hPa 0 mm - - -
1787970250 17.78° C 79% 1023.7 hPa 0 mm - - -
1787969646 17.78° C 77% 1023.8 hPa 0 mm - - -
1787969046 18.33° C 74% 1024.1 hPa 0 mm - - -
1787968456 18.33° C 73% 1024 hPa 0 mm - - -
1787967848 18.33° C 72% 1024 hPa 0 mm - - -
1787967247 18.33° C 71% 1023.9 hPa 0 mm - - -
1787966657 18.33° C 71% 1023.9 hPa 0 mm - - -
1787966047 18.33° C 73% 1023.7 hPa 0 mm - - -
1787965448 18.33° C 73% 1023.6 hPa 0 mm - - -
1787964847 18.33° C 73% 1023.5 hPa 0 mm - - -
1787964247 18.33° C 72% 1023.5 hPa 0 mm - - -
1787963647 18.89° C 70% 1023.5 hPa 0 mm - - -
1787963047 18.89° C 68% 1023.4 hPa 0 mm - - -
1787962447 18.89° C 70% 1023.3 hPa 0 mm - - -
1787961847 18.89° C 71% 1023.3 hPa 0 mm - - -
1787961247 18.89° C 70% 1023.2 hPa 0 mm - - -
1787960647 18.89° C 69% 1023.1 hPa 0 mm - - -
1787960047 19.44° C 70% 1023.1 hPa 0 mm - - -

* Rain latest hour (hover to see other rain measurements)
** Current wind speed in m/s (hover to see current wind gust speed)